Weather History for PAGY - February, 2013

Change the Weather History Date:

Wednesday, February 27, 2013

  Actual Average Record
Temperature  
Mean Temperature 34 °F -  
Max Temperature 37 °F 34 °F 54 °F (1991)
Min Temperature 30 °F 26 °F 1 °F (1971)
Degree Days  
Heating Degree Days 32    
Moisture  
Dew Point 28 °F    
Average Humidity 82    
Maximum Humidity 96    
Minimum Humidity 48    
Precipitation  
Precipitation 0.06 in - - ()
Sea Level Pressure  
Sea Level Pressure 29.64 in    
Wind  
Wind Speed 3 mph (SE)    
Max Wind Speed 14 mph    
Max Gust Speed -    
Visibility 6 miles    
Events Snow    
Averages and records for this station are not official NWS values.
T = Trace of Precipitation, MM = Missing Value Source: NWS Daily Summary

Daily Weather History Graph

Daily Weather History Graph

Search for Another Location

Airport or City:

Trip Planner

Search our weather history database for the weather conditions in past years. The results will help you decide how hot, cold, wet, or windy it might be!

Date:

Astronomy

Feb. 27, 2013 Rise Set
Actual Time 7:03 AM AKST 5:25 PM AKST
Civil Twilight 6:21 AM AKST 6:07 PM AKST
Nautical Twilight 5:34 AM AKST 6:54 PM AKST
Astronomical Twilight 4:46 AM AKST 7:42 PM AKST
Moon 8:46 PM AKST (2/27) 7:01 AM AKST (2/27)
Length of Visible Light 11h 45m
Length of Day
10h 22m
Waning Gibbous, 95% of the Moon is Illuminated
Feb 27
Waning Gibbous
Mar 4
Last Quarter
Mar 11
New
Mar 19
First Quarter
Mar 27
Full

Hourly Weather History & Observations

Time (AKST) Temp. Windchill Dew Point Humidity Pressure Visibility Wind Dir Wind Speed Gust Speed Precip Events Conditions
12:53 AM 36.0 °F 28.5 °F 18.0 °F 48% 29.69 in 10.0 mi NNE 10.4 mph - N/A   Overcast
1:53 AM 35.1 °F 27.9 °F 18.0 °F 50% 29.69 in 10.0 mi ENE 9.2 mph - N/A   Overcast
3:53 AM 35.1 °F 31.0 °F 23.0 °F 61% 29.68 in 10.0 mi Variable 4.6 mph - 0.00 in   Overcast
4:53 AM 33.1 °F - 26.1 °F 75% 29.68 in 9.0 mi Calm Calm - 0.00 in Snow Light Snow
5:53 AM 32.0 °F - 26.1 °F 79% 29.69 in 6.0 mi Calm Calm - 0.00 in Snow Light Snow
6:53 AM 32.0 °F - 27.0 °F 82% 29.68 in 4.0 mi Calm Calm - 0.00 in Snow Light Snow
8:00 AM 32.0 °F - 28.4 °F 87% 29.69 in 2.0 mi Calm Calm - 0.00 in Snow Light Snow
8:23 AM 32.0 °F - 28.4 °F 87% 29.69 in 1.2 mi Calm Calm - 0.00 in Snow Light Snow
8:53 AM 30.9 °F - 28.9 °F 92% 29.69 in 1.2 mi Calm Calm - 0.00 in Snow Light Snow
8:58 AM 30.2 °F - 28.4 °F 93% 29.69 in 2.0 mi Calm Calm - 0.00 in Snow Light Snow
9:08 AM 30.2 °F - 28.4 °F 93% 29.68 in 5.0 mi Calm Calm - 0.00 in Snow Light Snow
9:24 AM 32.0 °F - 28.4 °F 87% 29.69 in 2.5 mi Calm Calm - 0.00 in Snow Light Snow
9:38 AM 32.0 °F - 28.4 °F 87% 29.68 in 1.5 mi Calm Calm - 0.00 in Snow Light Snow
9:53 AM 32.0 °F - 28.9 °F 88% 29.69 in 1.5 mi Calm Calm - 0.00 in Snow Light Snow
9:57 AM 32.0 °F - 28.4 °F 87% 29.67 in 2.0 mi Calm Calm - 0.00 in Snow Light Snow
10:15 AM 32.0 °F - 28.4 °F 87% 29.69 in 3.0 mi Calm Calm - 0.00 in Snow Light Snow
10:35 AM 32.0 °F - 28.4 °F 87% 29.68 in 2.0 mi Calm Calm - 0.01 in Snow Light Snow
10:53 AM 32.0 °F - 28.0 °F 85% 29.68 in 2.0 mi Calm Calm - 0.01 in Snow Light Snow
10:58 AM 32.0 °F - 28.4 °F 87% 29.68 in 1.2 mi Calm Calm - 0.00 in Snow Light Snow
11:10 AM 32.0 °F - 28.4 °F 87% 29.67 in 1.5 mi Calm Calm - 0.00 in Snow Light Snow
11:28 AM 32.0 °F - 28.4 °F 87% 29.66 in 3.0 mi Calm Calm - 0.00 in Snow Light Snow
11:37 AM 32.0 °F - 28.4 °F 87% 29.66 in 8.0 mi Calm Calm - 0.00 in Snow Light Snow
11:53 AM 33.1 °F - 30.9 °F 92% 29.66 in 10.0 mi Calm Calm - 0.00 in   Overcast
12:02 PM 33.8 °F - 30.2 °F 87% 29.65 in 10.0 mi Calm Calm - N/A   Overcast
12:53 PM 36.0 °F - 30.0 °F 79% 29.62 in 10.0 mi Calm Calm - N/A   Mostly Cloudy
1:53 PM 37.0 °F - 28.9 °F 73% 29.60 in 10.0 mi Calm Calm - N/A   Overcast
2:53 PM 37.9 °F - 28.9 °F 70% 29.57 in 10.0 mi Calm Calm - N/A   Overcast
3:53 PM 37.9 °F - 28.9 °F 70% 29.57 in 10.0 mi Calm Calm - N/A   Overcast
4:53 PM 37.0 °F 34.5 °F 28.0 °F 70% 29.55 in 10.0 mi Variable 3.5 mph - N/A   Overcast
5:53 PM 37.0 °F - 28.0 °F 70% 29.56 in 10.0 mi Calm Calm - N/A   Overcast
6:53 PM 35.1 °F 31.0 °F 28.0 °F 76% 29.55 in 10.0 mi NNE 4.6 mph - N/A   Overcast
7:53 PM 33.1 °F 30.0 °F 28.0 °F 82% 29.55 in 10.0 mi NE 3.5 mph - N/A   Overcast
8:53 PM 33.1 °F - 28.0 °F 82% 29.55 in 10.0 mi Calm Calm - N/A   Overcast
9:53 PM 33.1 °F - 28.9 °F 85% 29.56 in 10.0 mi Calm Calm - N/A   Overcast
10:53 PM 35.1 °F 25.9 °F 30.9 °F 85% 29.62 in 8.0 mi SSW 13.8 mph - 0.00 in Snow Light Snow
11:09 PM 33.8 °F 27.7 °F 30.2 °F 87% 29.62 in 2.5 mi SSW 6.9 mph - 0.01 in Snow Light Snow
11:16 PM 33.8 °F 28.6 °F 30.2 °F 87% 29.63 in 2.5 mi SSW 5.8 mph - 0.02 in Snow Light Snow
11:25 PM 33.8 °F 29.6 °F 30.2 °F 87% 29.64 in 3.0 mi SSW 4.6 mph - 0.03 in Snow Light Snow
11:35 PM 32.0 °F - 30.2 °F 93% 29.64 in 2.0 mi Calm Calm - 0.04 in Snow Light Snow
11:42 PM 32.0 °F - 30.2 °F 93% 29.64 in 1.2 mi Calm Calm - 0.04 in Snow Light Snow
11:53 PM 32.0 °F - 30.9 °F 96% 29.65 in 1.2 mi Calm Calm - 0.05 in Snow Light Snow